STARLINK-34612, 64773

Orbit data source: Space-Track

STARLINK-34612, 64773 is a payload satellite owned by SpaceX/Seattle (US) in LEO that was launched on Tue, 08 Jul 2025 UTC via an FALCON 9 launch vehicle from the Air Force Eastern Test Range (AFETR). Payload-class satellites include a variety of spacecraft equipped with specific instruments for various scientific and technological missions. These include communications satellites like Starlink; space stations such as the ISS; scientific satellites like the Hubble; Earth observation satellites from companies like Planet Labs, Umbra, and HawkEye 360; GPS; miniature CubeSats for education and research; and military/defense satellites.

Loading next visibility...
Identifier
64773, 2025-147U
Orbit
LEO
Country
Flag of USUS
Related business
Manufacturer
SpaceX/Seattle
Mission
Operational Commercial Communications
Bus & Motor
STARLINK V2MO, Unknown motor
Mass
575 kg wet, ~530 kg dry
Launch date (UTC)
2025-07-08 (11 months ago)
Launch vehicle
FALCON 9
Launch site
Air Force Eastern Test Range (AFETR)
Object type
Payload
Rocket body
Debris
Shape & HBR
Box + 2 Pan, 17.7 m
Radar Cross Section
36.964 m², Large (>1 m²)

Expand to show TLE details & history
Last TLE update: 16 hours ago

TLE from 16 hours ago
0 STARLINK-34612
1 64773U 25147U   26171.29282503  .00014113  00000-0  42793-3 0  9992
2 64773  53.1577 124.5480 0001187  98.7386 261.3751 15.34408459 54488
Epoch: 2026-06-20T07:01Z
TLE epoch observation values (Epoch: 2026-06-20T07:01:40.082Z)
Latitude
-0.00003°
Longitude
110.62143°
Altitude
463.701 km
Speed
7.636 km/s
True Right ascension
08h 18m 11s
True Declination
0° 00' 00"
Sunlit
Object was in daylight at epoch
Visualization orbit readout
Latitude
Unknown
Longitude
Unknown
Altitude
Unknown
Speed
Unknown
Apparent Right ascension
Unknown
Apparent Declination
Unknown
Sunlit
N/A
Visualization observer readout
Local Sidereal Time
10:19:49
Azimuth
Unknown
Elevation
Unknown
Doppler factor
Unknown
Orbital elements
Apogee altitude
463.747 km
Perigee altitude
462.123 km
Semi-major axis
6,841.072 km
Eccentricity
0.00012
Inclination
53.1577°
RAAN
124.548°
Arg. of periapsis
98.7386°
True anomaly
261.36165°
Mean anomaly
261.3751°
Eccentric anomaly
261.36838°
Mean motion
3.83581 °/min
Orbital period
93.85 mins
BSTAR
0.00042793
Loading maneuver chart data...
Computing Atmospheric mass density...
Loading historical data...
Loading historical data...
Loading historical data...
Loading historical data...
Loading historical data...
Loading historical data...
Loading historical data...

Documentation

Showing up to 5 results
|